TimeHST,TemperatureF,Dew PointF,Humidity,Sea Level PressureIn,VisibilityMPH,Wind Direction,Wind SpeedMPH,Gust SpeedMPH,PrecipitationIn,Events,Conditions,WindDirDegrees,DateUTC
12:56 AM,34.0,32.0,92,30.30,10.0,Calm,Calm,-,N/A,,Clear,0,2012-11-18 10:56:00
1:56 AM,34.0,32.0,92,30.31,10.0,Calm,Calm,-,N/A,,Clear,0,2012-11-18 11:56:00
2:56 AM,33.1,32.0,96,30.30,10.0,Calm,Calm,-,N/A,,Clear,0,2012-11-18 12:56:00
3:56 AM,34.0,30.9,89,30.30,10.0,ESE,3.5,-,N/A,,Clear,120,2012-11-18 13:56:00
4:56 AM,41.0,36.0,82,30.33,10.0,South,9.2,-,N/A,,Clear,170,2012-11-18 14:56:00
5:56 AM,39.9,36.0,86,30.33,10.0,SSW,8.1,-,N/A,,Clear,200,2012-11-18 15:56:00
6:56 AM,41.0,36.0,82,30.34,10.0,South,5.8,-,N/A,,Clear,190,2012-11-18 16:56:00
7:56 AM,35.1,33.1,92,30.34,10.0,Calm,Calm,-,N/A,,Clear,0,2012-11-18 17:56:00
8:56 AM,35.1,33.1,92,30.34,10.0,Calm,Calm,-,N/A,,Clear,0,2012-11-18 18:56:00
9:56 AM,37.9,36.0,93,30.34,10.0,East,4.6,-,N/A,,Clear,100,2012-11-18 19:56:00
10:56 AM,39.9,37.9,93,30.33,10.0,East,8.1,-,N/A,,Clear,90,2012-11-18 20:56:00
11:56 AM,41.0,37.0,86,30.31,10.0,East,13.8,-,N/A,,Clear,100,2012-11-18 21:56:00
12:56 PM,41.0,37.0,86,30.30,10.0,East,15.0,-,N/A,,Clear,100,2012-11-18 22:56:00
1:56 PM,42.1,37.0,82,30.27,10.0,East,18.4,-,N/A,,Clear,100,2012-11-18 23:56:00
2:56 PM,42.1,37.0,82,30.22,10.0,East,18.4,-,N/A,,Clear,90,2012-11-19 00:56:00
3:56 PM,41.0,36.0,82,30.19,10.0,East,20.7,-,N/A,,Clear,90,2012-11-19 01:56:00
4:56 PM,41.0,37.0,86,30.17,10.0,East,21.9,-,N/A,,Mostly Cloudy,100,2012-11-19 02:56:00
5:33 PM,41.0,35.6,81,30.15,10.0,East,23.0,27.6,N/A,,Scattered Clouds,90,2012-11-19 03:33:00
5:56 PM,41.0,36.0,82,30.14,10.0,East,24.2,27.6,N/A,,Scattered Clouds,90,2012-11-19 03:56:00
6:56 PM,39.9,35.1,83,30.12,10.0,East,27.6,32.2,N/A,,Partly Cloudy,90,2012-11-19 04:56:00
7:56 PM,39.9,35.1,83,30.09,10.0,East,28.8,33.4,N/A,,Partly Cloudy,90,2012-11-19 05:56:00
8:56 PM,41.0,36.0,82,30.06,10.0,East,29.9,35.7,N/A,,Partly Cloudy,90,2012-11-19 06:56:00
9:28 PM,41.0,35.6,81,30.04,10.0,East,33.4,38.0,N/A,,Mostly Cloudy,100,2012-11-19 07:28:00
9:56 PM,41.0,36.0,82,30.02,10.0,East,29.9,36.8,N/A,,Mostly Cloudy,100,2012-11-19 07:56:00
10:56 PM,41.0,35.1,79,29.97,10.0,East,35.7,42.6,N/A,,Mostly Cloudy,100,2012-11-19 08:56:00
11:56 PM,41.0,36.0,82,29.94,10.0,East,33.4,43.7,N/A,,Mostly Cloudy,100,2012-11-19 09:56:00